GW7331 Weather Reports


Display with metric or nautical units.
time (UTC)temp
F
wind
direction
speed
MPH
gust
MPH
rain 1hr
in
rain 24hr
in
rain mn
in
humidity
%
barometer
mb
20260906003043 81 0 0.0 0.0 0.00 0.20 0.20 89 1011.6
20260906001548 83 0 0.0 0.0 0.00 0.20 0.20 86 1011.6
20260906000047 84 0 0.0 2.0 0.00 0.20 0.20 82 1011.7
20260905234543 84 164 0.0 1.0 0.00 0.20 0.20 81 1011.6
20260905233105 84 0 0.0 5.0 0.00 0.20 0.20 81 1011.5
20260905231553 84 0 0.0 1.0 0.00 0.20 0.20 82 1011.5
20260905230048 85 0 0.0 0.0 0.00 0.20 0.20 84 1011.5
20260905224606 86 0 0.0 1.0 0.00 0.20 0.20 79 1011.5
20260905223048 87 231 0.0 2.0 0.00 0.20 0.20 75 1011.8
20260905221545 87 243 1.0 3.0 0.00 0.20 0.20 75 1011.8
20260905220049 88 347 0.0 3.0 0.00 0.20 0.20 73 1011.9
20260905214546 89 180 2.0 5.0 0.00 0.20 0.20 73 1011.9
20260905213049 89 0 0.0 3.0 0.00 0.20 0.20 74 1012.1
20260905211545 88 213 0.0 3.0 0.00 0.20 0.20 75 1012.2
20260905210044 89 0 0.0 3.0 0.00 0.20 0.20 76 1012.2
20260905204547 87 258 0.0 3.0 0.00 0.20 0.20 79 1012.1
20260905203045 85 0 0.0 2.0 0.08 0.20 0.20 80 1012.2
20260905201545 84 0 0.0 1.0 0.10 0.20 0.20 87 1012.3
20260905200051 82 0 0.0 1.0 0.16 0.20 0.20 90 1012.6
20260905194548 80 332 0.0 3.0 0.19 0.20 0.20 91 1012.9
20260905193044 79 282 0.0 5.0 0.11 0.12 0.12 90 1013.4
20260905191549 81 0 0.0 6.0 0.09 0.10 0.10 88 1013.4
20260905190104 84 206 3.0 6.0 0.03 0.04 0.04 83 1013.3
20260905184606 88 207 1.0 4.0 0.00 0.01 0.01 77 1013.3
20260905183045 88 0 0.0 1.0 0.01 0.01 0.01 76 1013.4
20260905181544 89 210 0.0 1.0 0.01 0.01 0.01 74 1013.6
20260905180050 90 203 0.0 3.0 0.01 0.01 0.01 74 1013.6
20260905174554 86 0 0.0 0.0 0.01 0.01 0.01 85 1013.8
20260905173046 89 0 0.0 3.0 0.00 0.00 0.00 74 1013.8
20260905171544 91 328 1.0 2.0 0.00 0.00 0.00 70 1013.9
20260905170045 89 198 0.0 3.0 0.00 0.00 0.00 67 1013.9
20260905164550 89 0 0.0 2.0 0.00 0.00 0.00 72 1014.2
20260905163045 87 238 0.0 3.0 0.00 0.00 0.00 73 1014.2
20260905161544 87 173 0.0 2.0 0.00 0.00 0.00 75 1014.4
20260905160042 87 221 0.0 4.0 0.00 0.00 0.00 75 1014.4
20260905154547 87 293 1.0 2.0 0.00 0.00 0.00 75 1014.3
20260905153045 87 0 0.0 3.0 0.00 0.00 0.00 76 1014.2
20260905151544 87 0 0.0 3.0 0.00 0.00 0.00 77 1014.2
20260905150041 85 0 0.0 1.0 0.00 0.00 0.00 79 1014.3
20260905144546 85 0 0.0 3.0 0.00 0.01 0.00 83 1014.4
20260905143046 84 216 1.0 3.0 0.00 0.01 0.00 83 1014.3
20260905141547 83 0 0.0 3.0 0.00 0.01 0.00 85 1014.2
20260905140047 81 0 0.0 1.0 0.00 0.01 0.00 93 1014.3
20260905134546 80 0 0.0 0.0 0.00 0.01 0.00 97 1014.1
20260905133044 79 0 0.0 0.0 0.00 0.01 0.00 97 1014.1
20260905131557 78 0 0.0 0.0 0.00 0.01 0.00 97 1014.2
20260905130047 77 0 0.0 0.0 0.00 0.01 0.00 98 1014.0
20260905124550 75 0 0.0 0.0 0.00 0.01 0.00 97 1014.0
20260905123055 75 0 0.0 0.0 0.00 0.01 0.00 97 1014.0
20260905121551 74 0 0.0 0.0 0.00 0.01 0.00 97 1013.8
20260905120050 74 0 0.0 0.0 0.00 0.01 0.00 97 1013.8
20260905114546 74 0 0.0 0.0 0.00 0.01 0.00 97 1013.7
20260905113044 74 0 0.0 0.0 0.00 0.01 0.00 97 1013.5
20260905111552 74 0 0.0 0.0 0.00 0.01 0.00 97 1013.4
20260905110045 74 0 0.0 0.0 0.00 0.01 0.00 97 1013.4
20260905104545 74 0 0.0 0.0 0.00 0.01 0.00 97 1013.2
20260905103043 74 0 0.0 0.0 0.00 0.01 0.00 97 1013.3
20260905101559 74 0 0.0 0.0 0.00 0.01 0.00 97 1013.1
20260905100047 74 0 0.0 0.0 0.00 0.01 0.00 97 1013.0
20260905094547 74 0 0.0 0.0 0.00 0.01 0.00 97 1013.2
20260905093043 74 0 0.0 0.0 0.00 0.01 0.00 97 1013.0
20260905091548 74 0 0.0 0.0 0.00 0.01 0.00 97 1012.9
20260905090045 74 0 0.0 0.0 0.00 0.01 0.00 97 1012.9
20260905084601 74 0 0.0 0.0 0.00 0.01 0.00 97 1013.1
20260905083042 74 0 0.0 0.0 0.00 0.01 0.00 97 1012.9
20260905081545 75 0 0.0 0.0 0.00 0.01 0.00 97 1012.8
20260905080045 75 0 0.0 0.0 0.00 0.01 0.00 97 1012.7
20260905074545 74 0 0.0 0.0 0.00 0.01 0.00 97 1012.9
20260905073043 74 0 0.0 0.0 0.00 0.01 0.00 97 1012.8
20260905071547 74 0 0.0 0.0 0.00 0.01 0.00 96 1012.8
20260905070046 74 0 0.0 0.0 0.00 0.01 0.00 96 1012.7
20260905064544 74 0 0.0 0.0 0.00 0.01 0.00 96 1012.7
20260905063051 74 0 0.0 0.0 0.00 0.01 0.00 96 1012.4
20260905061548 75 0 0.0 0.0 0.00 0.01 0.00 96 1012.7
20260905060046 75 0 0.0 0.0 0.00 0.01 0.00 96 1012.9
20260905054546 75 0 0.0 0.0 0.00 0.03 0.00 96 1012.7
20260905053042 75 0 0.0 0.0 0.00 0.03 0.00 96 1012.9
20260905051547 76 0 0.0 0.0 0.00 0.03 0.00 96 1013.0
20260905050047 76 0 0.0 0.0 0.00 0.03 0.00 96 1013.2
20260905044546 76 0 0.0 0.0 0.00 0.15 0.03 96 1013.5
20260905043046 76 0 0.0 0.0 0.00 0.15 0.03 96 1013.5
20260905041547 76 0 0.0 0.0 0.00 0.15 0.03 96 1013.6
20260905040046 76 0 0.0 0.0 0.00 0.15 0.03 96 1013.7
20260905034548 76 0 0.0 0.0 0.00 0.15 0.03 96 1013.8
20260905033039 76 0 0.0 0.0 0.00 0.15 0.03 96 1013.9
20260905031550 76 0 0.0 0.0 0.00 0.15 0.03 95 1014.0
20260905030044 76 0 0.0 0.0 0.00 0.15 0.03 95 1014.1
20260905024608 76 0 0.0 0.0 0.00 0.15 0.03 95 1014.1
20260905023056 77 0 0.0 0.0 0.00 0.15 0.03 95 1014.2
20260905021547 77 0 0.0 0.0 0.00 0.15 0.03 95 1014.0
20260905020050 77 0 0.0 0.0 0.00 0.15 0.03 94 1013.9
20260905014546 77 0 0.0 0.0 0.00 0.15 0.03 94 1013.8
20260905013052 78 0 0.0 0.0 0.00 0.15 0.03 94 1013.6
20260905011556 78 0 0.0 0.0 0.00 0.15 0.03 94 1013.7
20260905010045 78 0 0.0 0.0 0.00 0.15 0.03 93 1013.6
20260905004557 78 0 0.0 0.0 0.00 0.15 0.03 92 1013.4